Location: Dattensoll
(49.9928°N, 9.8954°E)
Time: 23:54:13
(UTC+00:00)

Cosmos 2298 Rocket - Pass Details

Date: 19 May 2025
Orbit: 773 x 782 km, 74.0° (Epoch: 15 June)

Event Time Altitude Azimuth Distance (km) Brightness Sun altitude
Rises 21:17:05 0° 334° (NNW) 3,281 9.2 -15.2°
Reaches altitude 10° 21:19:29 10° 332° (NNW) 2,348 7.9 -15.4°
Maximum altitude 21:24:47 70° 250° (WSW) 835 4.2 -15.8°
Enters shadow 21:27:58 24° 172° (S) 1,562 5.0 -16.0°
